KOREASAT 7

Last updated on Thu Oct 30 2025 00:02:50 GMT+0000 (Coordinated Universal Time)

1 42691U 17023A 25302.53219574 -.00000352 00000+0 00000+0 0 9992 2 42691 0.0346 10.1322 0001706 208.3896 127.1073 1.00270615 31058
UTC large
Height (km)
Speed (km/s)
/
Latitude / Longitude
Inclination (degrees)
Orbital Period (minutes)
Azimuth
Elevation
Range (km)
Doppler Factor

Next 0 passes for location: London (51.5072 / 0.1276)

Sorry there are no passes over London.